EZS41RL BKPR-LSGG

Flight info

Callsign EZS41RL
Flight time 1h 55m
Altitude 36000
Route KUKAD1D KUKAD DCT RETRA DCT SIPAL DCT BAXON DCT SRN DCT OMETO DCT AOSTA L615 BANKO
Aircraft A320/M-SDE2E3FGHIJ1RWXYZ/LB1

Departure

Time 2026-04-16 21:26
Airport Priština Adem Jashari International Airport (BKPR)

Arrival

Time 2026-04-16 23:21
Airport Geneva International Airport (LSGG)
Time Latitude Longitude Altitude Speed Heading
2026-04-16 20:13 42.57396 21.03155 1787 ft 0 kts 265°
2026-04-16 21:13 42.57396 21.03168 1787 ft 4 kts 267°
2026-04-16 21:13 42.57396 21.03204 1787 ft 4 kts 282°
2026-04-16 21:14 42.57386 21.03232 1785 ft 4 kts 337°
2026-04-16 21:14 42.57379 21.03236 1786 ft 0 kts 355°
2026-04-16 21:18 42.57380 21.03236 1785 ft 1 kts 355°
2026-04-16 21:18 42.57415 21.03232 1787 ft 6 kts 355°
2026-04-16 21:18 42.57452 21.03228 1786 ft 5 kts 355°
2026-04-16 21:19 42.57501 21.03222 1787 ft 7 kts 355°
2026-04-16 21:19 42.57559 21.03222 1787 ft 8 kts 14°
2026-04-16 21:19 42.57590 21.03279 1787 ft 8 kts 89°
2026-04-16 21:19 42.57558 21.03316 1787 ft 6 kts 171°
2026-04-16 21:20 42.57488 21.03324 1787 ft 12 kts 175°
2026-04-16 21:20 42.57405 21.03333 1787 ft 12 kts 175°
2026-04-16 21:20 42.57326 21.03342 1787 ft 12 kts 175°
2026-04-16 21:20 42.57229 21.03351 1787 ft 15 kts 176°
2026-04-16 21:21 42.57116 21.03362 1783 ft 18 kts 176°
2026-04-16 21:21 42.56996 21.03374 1786 ft 17 kts 175°
2026-04-16 21:21 42.56869 21.03387 1783 ft 20 kts 175°
2026-04-16 21:21 42.56719 21.03403 1780 ft 22 kts 176°
2026-04-16 21:22 42.56572 21.03419 1783 ft 21 kts 176°
2026-04-16 21:22 42.56420 21.03430 1783 ft 22 kts 176°
2026-04-16 21:22 42.56274 21.03446 1789 ft 20 kts 175°
2026-04-16 21:22 42.56141 21.03461 1791 ft 19 kts 175°
2026-04-16 21:23 42.56011 21.03475 1793 ft 18 kts 176°
2026-04-16 21:23 42.55897 21.03486 1797 ft 12 kts 175°
2026-04-16 21:23 42.55821 21.03507 1798 ft 10 kts 146°
2026-04-16 21:23 42.55803 21.03585 1797 ft 8 kts 86°
2026-04-16 21:24 42.55808 21.03651 1799 ft 6 kts 83°
2026-04-16 21:24 42.55813 21.03702 1799 ft 5 kts 79°
2026-04-16 21:24 42.55845 21.03735 1798 ft 5 kts
2026-04-16 21:24 42.55860 21.03734 1798 ft 0 kts 354°
2026-04-16 21:25 42.55863 21.03733 1795 ft 6 kts 354°
2026-04-16 21:25 42.56178 21.03697 1790 ft 82 kts 355°
2026-04-16 21:25 42.56966 21.03619 1785 ft 142 kts 356°
2026-04-16 21:25 42.58106 21.03494 1865 ft 179 kts 353°
2026-04-16 21:26 42.59326 21.03343 2524 ft 178 kts 354°
2026-04-16 21:26 42.60574 21.03217 3167 ft 185 kts 357°
2026-04-16 21:26 42.61944 21.03088 3439 ft 209 kts 358°
2026-04-16 21:26 42.63466 21.02855 3832 ft 231 kts 345°
2026-04-16 21:27 42.64832 21.01622 4477 ft 244 kts 316°
2026-04-16 21:27 42.65878 20.99781 5313 ft 248 kts 307°
2026-04-16 21:27 42.66807 20.97782 6083 ft 252 kts 303°
2026-04-16 21:27 42.67733 20.95728 6829 ft 257 kts 303°
2026-04-16 21:28 42.68627 20.93644 7557 ft 262 kts 293°
2026-04-16 21:28 42.68908 20.91200 8290 ft 267 kts 264°
2026-04-16 21:28 42.68312 20.88775 8814 ft 282 kts 234°
2026-04-16 21:28 42.66872 20.86919 9373 ft 291 kts 216°
2026-04-16 21:29 42.65238 20.85271 10115 ft 295 kts 216°
2026-04-16 21:29 42.63578 20.83609 10822 ft 298 kts 216°
2026-04-16 21:29 42.61905 20.81927 11547 ft 300 kts 216°
2026-04-16 21:29 42.60221 20.80226 12277 ft 303 kts 216°
2026-04-16 21:30 42.58546 20.78531 12989 ft 306 kts 216°
2026-04-16 21:30 42.56834 20.76799 13693 ft 309 kts 216°
2026-04-16 21:30 42.55100 20.75048 14327 ft 312 kts 216°
2026-04-16 21:30 42.53348 20.73283 14917 ft 315 kts 216°
2026-04-16 21:31 42.51579 20.71499 15531 ft 318 kts 217°
2026-04-16 21:31 42.49950 20.69451 16115 ft 323 kts 230°
2026-04-16 21:31 42.48682 20.66902 16488 ft 335 kts 243°
2026-04-16 21:31 42.47796 20.63887 16618 ft 354 kts 250°
2026-04-16 21:32 42.46952 20.60721 16821 ft 369 kts 250°
2026-04-16 21:32 42.46065 20.57426 17279 ft 375 kts 249°
2026-04-16 21:32 42.45158 20.54093 17833 ft 379 kts 249°
2026-04-16 21:32 42.44237 20.50729 18379 ft 383 kts 249°
2026-04-16 21:33 42.43304 20.47334 18869 ft 387 kts 249°
2026-04-16 21:33 42.42359 20.43912 19373 ft 389 kts 249°
2026-04-16 21:33 42.41404 20.40469 19912 ft 392 kts 249°
2026-04-16 21:33 42.40444 20.37010 20427 ft 394 kts 249°
2026-04-16 21:34 42.39493 20.33571 20926 ft 397 kts 249°
2026-04-16 21:34 42.38524 20.30061 21428 ft 400 kts 249°
2026-04-16 21:34 42.37547 20.26534 21936 ft 402 kts 249°
2026-04-16 21:34 42.36564 20.22983 22477 ft 404 kts 249°
2026-04-16 21:35 42.35579 20.19409 22964 ft 407 kts 251°
2026-04-16 21:35 42.34867 20.15702 23471 ft 409 kts 259°
2026-04-16 21:35 42.34333 20.11919 23905 ft 411 kts 259°
2026-04-16 21:35 42.33792 20.08116 24292 ft 413 kts 259°
2026-04-16 21:36 42.33244 20.04293 24669 ft 416 kts 259°
2026-04-16 21:36 42.32698 20.00500 25048 ft 418 kts 259°
2026-04-16 21:36 42.32143 19.96640 25430 ft 419 kts 259°
2026-04-16 21:36 42.31583 19.92767 25798 ft 421 kts 259°
2026-04-16 21:37 42.31017 19.88878 26142 ft 423 kts 258°
2026-04-16 21:37 42.30447 19.84972 26500 ft 425 kts 258°
2026-04-16 21:37 42.29876 19.81061 26856 ft 426 kts 258°
2026-04-16 21:37 42.29300 19.77127 27215 ft 427 kts 258°
2026-04-16 21:38 42.28722 19.73181 27536 ft 430 kts 258°
2026-04-16 21:38 42.28139 19.69210 27842 ft 432 kts 258°
2026-04-16 21:38 42.27559 19.65273 28140 ft 434 kts 258°
2026-04-16 21:38 42.26967 19.61268 28454 ft 436 kts 258°
2026-04-16 21:39 42.26373 19.57245 28763 ft 438 kts 258°
2026-04-16 21:39 42.25777 19.53207 29070 ft 439 kts 258°
2026-04-16 21:39 42.25179 19.49152 29358 ft 441 kts 258°
2026-04-16 21:39 42.24576 19.45084 29648 ft 443 kts 258°
2026-04-16 21:40 42.24000 19.41004 29944 ft 444 kts 262°
2026-04-16 21:40 42.23820 19.36838 30195 ft 446 kts 271°
2026-04-16 21:40 42.24177 19.32681 30487 ft 446 kts 282°
2026-04-16 21:40 42.25048 19.28666 30771 ft 447 kts 291°
2026-04-16 21:41 42.26392 19.24945 31006 ft 448 kts 299°
2026-04-16 21:41 42.27921 19.21286 31318 ft 447 kts 299°
2026-04-16 21:41 42.29448 19.17633 31635 ft 446 kts 299°
2026-04-16 21:41 42.30968 19.13982 31947 ft 445 kts 298°
2026-04-16 21:42 42.32481 19.10332 32259 ft 445 kts 298°
2026-04-16 21:42 42.33991 19.06688 32587 ft 444 kts 298°
2026-04-16 21:42 42.35491 19.03054 32896 ft 443 kts 298°
2026-04-16 21:42 42.36986 18.99421 33212 ft 442 kts 298°
2026-04-16 21:43 42.38460 18.95839 33543 ft 441 kts 298°
2026-04-16 21:43 42.39951 18.92216 33877 ft 440 kts 298°
2026-04-16 21:43 42.41441 18.88602 34188 ft 439 kts 298°
2026-04-16 21:43 42.42927 18.84993 34441 ft 439 kts 298°
2026-04-16 21:44 42.44408 18.81383 34677 ft 438 kts 298°
2026-04-16 21:44 42.45886 18.77773 34915 ft 438 kts 298°
2026-04-16 21:44 42.47359 18.74168 35144 ft 436 kts 298°
2026-04-16 21:44 42.48806 18.70625 35413 ft 435 kts 298°
2026-04-16 21:45 42.50264 18.67057 35677 ft 433 kts 298°
2026-04-16 21:45 42.51721 18.63489 35903 ft 432 kts 298°
2026-04-16 21:45 42.53177 18.59919 36017 ft 432 kts 298°
2026-04-16 21:46 42.56067 18.52822 36060 ft 428 kts 298°
2026-04-16 21:46 42.58919 18.45803 36056 ft 428 kts 298°
2026-04-16 21:47 42.61788 18.38727 36064 ft 427 kts 299°
2026-04-16 21:47 42.64636 18.31661 36050 ft 427 kts 299°
2026-04-16 21:48 42.67474 18.24587 36051 ft 426 kts 298°
2026-04-16 21:48 42.70309 18.17521 36056 ft 426 kts 299°
2026-04-16 21:49 42.73130 18.10494 36071 ft 426 kts 299°
2026-04-16 21:49 42.75963 18.03412 36065 ft 426 kts 298°
2026-04-16 21:50 42.78798 17.96321 36071 ft 426 kts 298°
2026-04-16 21:50 42.81624 17.89221 36068 ft 426 kts 298°
2026-04-16 21:51 42.84418 17.82154 36072 ft 427 kts 298°
2026-04-16 21:51 42.87227 17.75024 36080 ft 426 kts 298°
2026-04-16 21:52 42.90036 17.67908 36063 ft 427 kts 299°
2026-04-16 21:52 42.92856 17.60783 36059 ft 427 kts 299°
2026-04-16 21:53 42.95653 17.53689 36076 ft 427 kts 299°
2026-04-16 21:53 42.98452 17.46541 36072 ft 427 kts 299°
2026-04-16 21:54 43.01249 17.39372 36068 ft 427 kts 299°
2026-04-16 21:54 43.04040 17.32202 36065 ft 428 kts 299°
2026-04-16 21:55 43.06840 17.25007 36057 ft 429 kts 299°
2026-04-16 21:55 43.09622 17.17833 36059 ft 430 kts 299°
2026-04-16 21:56 43.12422 17.10582 36064 ft 432 kts 299°
2026-04-16 21:56 43.15221 17.03299 36063 ft 432 kts 299°
2026-04-16 21:57 43.17988 16.95971 36061 ft 433 kts 299°
2026-04-16 21:57 43.20735 16.88618 36068 ft 434 kts 299°
2026-04-16 21:58 43.23471 16.81302 36077 ft 434 kts 299°
2026-04-16 21:58 43.26236 16.73928 36074 ft 435 kts 299°
2026-04-16 21:59 43.28993 16.66546 36068 ft 435 kts 299°
2026-04-16 21:59 43.31745 16.59152 36071 ft 435 kts 299°
2026-04-16 22:00 43.34026 16.52997 36076 ft 435 kts 299°
2026-04-16 22:00 43.37217 16.44396 36074 ft 435 kts 299°
2026-04-16 22:01 43.39512 16.38188 36080 ft 435 kts 299°
2026-04-16 22:01 43.42682 16.29557 36078 ft 434 kts 299°
2026-04-16 22:02 43.44937 16.23399 36088 ft 434 kts 299°
2026-04-16 22:02 43.48096 16.14799 36097 ft 432 kts 298°
2026-04-16 22:03 43.50357 16.08618 36100 ft 431 kts 298°
2026-04-16 22:03 43.53025 16.01280 36097 ft 431 kts 298°
2026-04-16 22:04 43.55706 15.93913 36090 ft 430 kts 298°
2026-04-16 22:04 43.58812 15.85354 36093 ft 429 kts 298°
2026-04-16 22:05 43.61038 15.79195 36086 ft 428 kts 298°
2026-04-16 22:05 43.63674 15.71886 36092 ft 428 kts 298°
2026-04-16 22:06 43.66322 15.64519 36091 ft 428 kts 298°
2026-04-16 22:06 43.70278 15.53489 36095 ft 427 kts 297°
2026-04-16 22:07 43.72905 15.46142 36097 ft 426 kts 297°
2026-04-16 22:07 43.75503 15.38843 36098 ft 426 kts 297°
2026-04-16 22:08 43.78113 15.31492 36094 ft 426 kts 297°
2026-04-16 22:08 43.80720 15.24147 36095 ft 425 kts 297°
2026-04-16 22:09 43.83317 15.16798 36113 ft 425 kts 297°
2026-04-16 22:09 43.85890 15.09493 36110 ft 425 kts 297°
2026-04-16 22:10 43.88475 15.02135 36121 ft 425 kts 297°
2026-04-16 22:10 43.91061 14.94769 36121 ft 425 kts 297°
2026-04-16 22:11 43.93636 14.87400 36115 ft 424 kts 296°
2026-04-16 22:11 43.96185 14.80090 36122 ft 423 kts 296°
2026-04-16 22:12 43.98748 14.72734 36126 ft 423 kts 296°
2026-04-16 22:12 44.01299 14.65378 36121 ft 423 kts 296°
2026-04-16 22:13 44.03841 14.58026 36125 ft 422 kts 296°
2026-04-16 22:13 44.06383 14.50664 36123 ft 422 kts 296°
2026-04-16 22:14 44.08898 14.43354 36132 ft 421 kts 296°
2026-04-16 22:14 44.11418 14.36000 36131 ft 420 kts 296°
2026-04-16 22:15 44.13930 14.28658 36136 ft 420 kts 296°
2026-04-16 22:15 44.16435 14.21321 36130 ft 419 kts 296°
2026-04-16 22:16 44.18917 14.14032 36123 ft 419 kts 296°
2026-04-16 22:16 44.21406 14.06691 36128 ft 419 kts 295°
2026-04-16 22:17 44.23895 13.99334 36126 ft 419 kts 295°
2026-04-16 22:17 44.26362 13.92033 36130 ft 419 kts 295°
2026-04-16 22:18 44.28840 13.84677 36133 ft 418 kts 296°
2026-04-16 22:18 44.31300 13.77328 36133 ft 418 kts 295°
2026-04-16 22:19 44.33761 13.69978 36138 ft 418 kts 296°
2026-04-16 22:19 44.36218 13.62634 36139 ft 417 kts 295°
2026-04-16 22:20 44.38653 13.55327 36141 ft 417 kts 296°
2026-04-16 22:20 44.41099 13.47961 36146 ft 417 kts 296°
2026-04-16 22:21 44.43460 13.40546 36145 ft 418 kts 294°
2026-04-16 22:21 44.45693 13.33033 36142 ft 418 kts 293°
2026-04-16 22:22 44.47894 13.25572 36147 ft 418 kts 294°
2026-04-16 22:22 44.50136 13.18059 36136 ft 418 kts 295°
2026-04-16 22:23 44.52387 13.10553 36138 ft 418 kts 295°
2026-04-16 22:23 44.54635 13.03030 36139 ft 419 kts 294°
2026-04-16 22:24 44.56875 12.95484 36141 ft 419 kts 294°
2026-04-16 22:24 44.59089 12.87989 36132 ft 419 kts 295°
2026-04-16 22:25 44.61317 12.80425 36134 ft 420 kts 295°
2026-04-16 22:25 44.63546 12.72852 36140 ft 420 kts 295°
2026-04-16 22:26 44.65772 12.65267 36136 ft 420 kts 295°
2026-04-16 22:26 44.67978 12.57732 36148 ft 420 kts 295°
2026-04-16 22:27 44.70197 12.50130 36139 ft 420 kts 295°
2026-04-16 22:27 44.72403 12.42532 36160 ft 419 kts 295°
2026-04-16 22:28 44.74586 12.34994 36155 ft 419 kts 295°
2026-04-16 22:28 44.76776 12.27415 36170 ft 418 kts 295°
2026-04-16 22:29 44.78961 12.19829 36167 ft 418 kts 295°
2026-04-16 22:29 44.81140 12.12247 36168 ft 417 kts 295°
2026-04-16 22:30 44.83301 12.04717 36172 ft 417 kts 295°
2026-04-16 22:30 44.85468 11.97137 36167 ft 417 kts 295°
2026-04-16 22:31 44.87623 11.89564 36173 ft 416 kts 295°
2026-04-16 22:31 44.89770 11.81975 36169 ft 417 kts 296°
2026-04-16 22:32 44.91902 11.74427 36175 ft 417 kts 295°
2026-04-16 22:32 44.94047 11.66825 36190 ft 418 kts 295°
2026-04-16 22:33 44.96191 11.59204 36190 ft 418 kts 295°
2026-04-16 22:33 44.98329 11.51572 36183 ft 418 kts 295°
2026-04-16 22:34 45.00468 11.43930 36193 ft 418 kts 295°
2026-04-16 22:34 45.02586 11.36331 36203 ft 418 kts 295°
2026-04-16 22:35 45.04702 11.28677 36205 ft 418 kts 295°
2026-04-16 22:35 45.06818 11.21025 36158 ft 417 kts 295°
2026-04-16 22:36 45.08928 11.13383 36149 ft 417 kts 295°
2026-04-16 22:36 45.11018 11.05780 36145 ft 417 kts 295°
2026-04-16 22:37 45.13119 10.98133 36146 ft 417 kts 295°
2026-04-16 22:37 45.15215 10.90465 36147 ft 417 kts 295°
2026-04-16 22:38 45.17292 10.82841 36153 ft 417 kts 295°
2026-04-16 22:38 45.19372 10.75171 36143 ft 417 kts 295°
2026-04-16 22:39 45.21448 10.67488 36155 ft 417 kts 294°
2026-04-16 22:39 45.23520 10.59810 36156 ft 417 kts 294°
2026-04-16 22:40 45.25592 10.52120 36157 ft 417 kts 294°
2026-04-16 22:40 45.27640 10.44482 36156 ft 417 kts 294°
2026-04-16 22:41 45.29702 10.36781 36171 ft 417 kts 294°
2026-04-16 22:41 45.31754 10.29092 36133 ft 416 kts 294°
2026-04-16 22:42 45.33795 10.21409 36134 ft 415 kts 294°
2026-04-16 22:42 45.35823 10.13736 36135 ft 414 kts 294°
2026-04-16 22:43 45.37828 10.06113 36123 ft 414 kts 294°
2026-04-16 22:43 45.39841 9.98447 36126 ft 413 kts 294°
2026-04-16 22:44 45.41851 9.90789 36128 ft 413 kts 294°
2026-04-16 22:44 45.43857 9.83133 36167 ft 413 kts 293°
2026-04-16 22:45 45.45833 9.75516 36143 ft 412 kts 293°
2026-04-16 22:45 45.47818 9.67849 36138 ft 412 kts 293°
2026-04-16 22:46 45.49801 9.60185 36142 ft 412 kts 293°
2026-04-16 22:46 45.51776 9.52519 36141 ft 412 kts 293°
2026-04-16 22:47 45.53749 9.44850 36141 ft 412 kts 293°
2026-04-16 22:47 45.55704 9.37227 36168 ft 412 kts 292°
2026-04-16 22:48 45.57660 9.29544 36165 ft 412 kts 292°
2026-04-16 22:48 45.59618 9.21867 36165 ft 411 kts 292°
2026-04-16 22:49 45.61571 9.14193 36174 ft 411 kts 292°
2026-04-16 22:49 45.63490 9.06577 36173 ft 410 kts 292°
2026-04-16 22:50 45.64943 8.98690 36160 ft 413 kts 280°
2026-04-16 22:50 45.65716 8.90545 36168 ft 413 kts 280°
2026-04-16 22:51 45.66492 8.82413 36169 ft 413 kts 280°
2026-04-16 22:51 45.67266 8.74321 36171 ft 413 kts 280°
2026-04-16 22:52 45.68034 8.66183 36173 ft 413 kts 280°
2026-04-16 22:52 45.68791 8.58039 36170 ft 413 kts 280°
2026-04-16 22:53 45.69544 8.49905 36175 ft 412 kts 280°
2026-04-16 22:53 45.70291 8.41829 36187 ft 412 kts 280°
2026-04-16 22:54 45.71038 8.33700 36185 ft 412 kts 279°
2026-04-16 22:54 45.71770 8.25570 36192 ft 412 kts 279°
2026-04-16 22:55 45.72504 8.17439 36201 ft 412 kts 279°
2026-04-16 22:55 45.73221 8.09369 36204 ft 411 kts 279°
2026-04-16 22:56 45.73941 8.01252 36212 ft 411 kts 279°
2026-04-16 22:56 45.74660 7.93129 36214 ft 411 kts 279°
2026-04-16 22:57 45.75373 7.85004 36054 ft 412 kts 279°
2026-04-16 22:57 45.75720 7.80957 35630 ft 408 kts 279°
2026-04-16 22:57 45.76057 7.77001 35163 ft 403 kts 279°
2026-04-16 22:58 45.76394 7.73030 34680 ft 400 kts 279°
2026-04-16 22:58 45.76731 7.69090 34196 ft 397 kts 279°
2026-04-16 22:58 45.77068 7.65177 33678 ft 394 kts 279°
2026-04-16 22:58 45.77398 7.61309 33213 ft 389 kts 279°
2026-04-16 22:59 45.77724 7.57478 32748 ft 386 kts 279°
2026-04-16 22:59 45.78043 7.53689 32294 ft 382 kts 279°
2026-04-16 22:59 45.78361 7.49926 31841 ft 379 kts 279°
2026-04-16 22:59 45.78674 7.46193 31399 ft 376 kts 279°
2026-04-16 23:00 45.78980 7.42528 30963 ft 374 kts 279°
2026-04-16 23:00 45.79286 7.38839 30551 ft 371 kts 278°
2026-04-16 23:00 45.79590 7.35179 30088 ft 368 kts 278°
2026-04-16 23:00 45.79890 7.31552 29633 ft 366 kts 278°
2026-04-16 23:01 45.80184 7.27956 29203 ft 362 kts 278°
2026-04-16 23:01 45.80474 7.24385 28770 ft 359 kts 278°
2026-04-16 23:01 45.80762 7.20847 28359 ft 356 kts 278°
2026-04-16 23:01 45.81046 7.17341 27945 ft 353 kts 278°
2026-04-16 23:02 45.81322 7.13911 27533 ft 350 kts 278°
2026-04-16 23:02 45.81598 7.10456 27120 ft 347 kts 278°
2026-04-16 23:02 45.82028 7.07079 26689 ft 342 kts 288°
2026-04-16 23:02 45.82878 7.03932 26285 ft 337 kts 298°
2026-04-16 23:03 45.84095 7.01094 25869 ft 334 kts 306°
2026-04-16 23:03 45.85411 6.98360 25441 ft 332 kts 305°
2026-04-16 23:03 45.86714 6.95633 25018 ft 330 kts 305°
2026-04-16 23:03 45.88011 6.92909 24569 ft 331 kts 305°
2026-04-16 23:04 45.89287 6.90229 24145 ft 330 kts 305°
2026-04-16 23:04 45.90582 6.87508 23689 ft 330 kts 305°
2026-04-16 23:04 45.91876 6.84782 23201 ft 330 kts 305°
2026-04-16 23:04 45.93159 6.82067 22773 ft 327 kts 305°
2026-04-16 23:05 45.94436 6.79370 22339 ft 326 kts 305°
2026-04-16 23:05 45.95706 6.76689 21916 ft 324 kts 305°
2026-04-16 23:05 45.96962 6.74019 21505 ft 321 kts 304°
2026-04-16 23:05 45.98203 6.71354 21092 ft 320 kts 304°
2026-04-16 23:06 45.99418 6.68730 20687 ft 319 kts 304°
2026-04-16 23:06 46.00647 6.66069 20282 ft 319 kts 304°
2026-04-16 23:06 46.01868 6.63414 19880 ft 319 kts 303°
2026-04-16 23:06 46.03092 6.60756 19471 ft 319 kts 303°
2026-04-16 23:07 46.04317 6.58094 19059 ft 319 kts 303°
2026-04-16 23:07 46.05543 6.55438 18661 ft 319 kts 303°
2026-04-16 23:07 46.06783 6.52789 18225 ft 319 kts 304°
2026-04-16 23:07 46.08031 6.50156 17827 ft 317 kts 304°
2026-04-16 23:08 46.09259 6.47575 17441 ft 315 kts 304°
2026-04-16 23:08 46.10494 6.44979 17037 ft 313 kts 304°
2026-04-16 23:08 46.11719 6.42391 16658 ft 312 kts 304°
2026-04-16 23:08 46.12942 6.39799 16277 ft 312 kts 304°
2026-04-16 23:09 46.14157 6.37220 15894 ft 311 kts 304°
2026-04-16 23:09 46.15373 6.34643 15526 ft 310 kts 304°
2026-04-16 23:09 46.16660 6.32127 15028 ft 314 kts 314°
2026-04-16 23:09 46.18458 6.30339 14543 ft 318 kts 337°
2026-04-16 23:10 46.20627 6.29787 14245 ft 317 kts
2026-04-16 23:10 46.22740 6.30495 13978 ft 311 kts 24°
2026-04-16 23:10 46.24468 6.32275 13309 ft 310 kts 44°
2026-04-16 23:10 46.25974 6.34479 12748 ft 307 kts 45°
2026-04-16 23:11 46.27463 6.36691 12302 ft 306 kts 45°
2026-04-16 23:11 46.28940 6.38891 11863 ft 301 kts 45°
2026-04-16 23:11 46.30378 6.41029 11456 ft 291 kts 45°
2026-04-16 23:11 46.31766 6.43091 11086 ft 281 kts 45°
2026-04-16 23:12 46.33104 6.45080 10706 ft 272 kts 45°
2026-04-16 23:12 46.34404 6.47011 10354 ft 265 kts 45°
2026-04-16 23:12 46.35696 6.48928 10001 ft 265 kts 45°
2026-04-16 23:12 46.36935 6.50767 9907 ft 253 kts 45°
2026-04-16 23:13 46.38274 6.52362 9817 ft 248 kts 24°
2026-04-16 23:13 46.39928 6.52885 9700 ft 244 kts 355°
2026-04-16 23:13 46.41541 6.52209 9298 ft 245 kts 326°
2026-04-16 23:13 46.42825 6.50580 8800 ft 250 kts 314°
2026-04-16 23:14 46.44069 6.48808 8289 ft 249 kts 315°
2026-04-16 23:14 46.45228 6.47000 7885 ft 241 kts 300°
2026-04-16 23:14 46.45695 6.44737 7516 ft 236 kts 267°
2026-04-16 23:14 46.45229 6.42521 7120 ft 238 kts 233°
2026-04-16 23:15 46.42930 6.39116 6377 ft 229 kts 224°
2026-04-16 23:15 46.41827 6.37502 6069 ft 221 kts 225°
2026-04-16 23:15 46.40774 6.35940 5818 ft 211 kts 225°
2026-04-16 23:16 46.39769 6.34450 5510 ft 202 kts 225°
2026-04-16 23:16 46.38810 6.33029 5243 ft 192 kts 225°
2026-04-16 23:16 46.37908 6.31692 5001 ft 181 kts 225°
2026-04-16 23:16 46.37037 6.30404 4759 ft 178 kts 225°
2026-04-16 23:17 46.36184 6.29143 4527 ft 177 kts 225°
2026-04-16 23:17 46.35323 6.27869 4289 ft 177 kts 225°
2026-04-16 23:17 46.34461 6.26596 4050 ft 177 kts 225°
2026-04-16 23:17 46.33602 6.25327 3821 ft 176 kts 225°
2026-04-16 23:18 46.32745 6.24060 3582 ft 176 kts 225°
2026-04-16 23:18 46.31891 6.22800 3347 ft 172 kts 225°
2026-04-16 23:18 46.31073 6.21594 3122 ft 165 kts 226°
2026-04-16 23:18 46.30281 6.20426 2902 ft 161 kts 226°
2026-04-16 23:19 46.29514 6.19295 2684 ft 158 kts 225°
2026-04-16 23:19 46.28748 6.18167 2463 ft 156 kts 226°
2026-04-16 23:19 46.27991 6.17052 2243 ft 154 kts 226°
2026-04-16 23:19 46.27244 6.15953 2044 ft 152 kts 226°
2026-04-16 23:20 46.26506 6.14862 1829 ft 151 kts 226°
2026-04-16 23:20 46.25773 6.13782 1623 ft 150 kts 225°
2026-04-16 23:20 46.25041 6.12707 1438 ft 150 kts 226°
2026-04-16 23:20 46.24337 6.11670 1372 ft 127 kts 225°
2026-04-16 23:21 46.23919 6.11063 1378 ft 56 kts 226°
2026-04-16 23:21 46.23782 6.10862 1382 ft 19 kts 221°
2026-04-16 23:21 46.23670 6.10766 1379 ft 19 kts 203°
2026-04-16 23:21 46.23556 6.10713 1385 ft 13 kts 194°
2026-04-16 23:22 46.23494 6.10689 1386 ft 6 kts 195°
2026-04-16 23:22 46.23468 6.10679 1390 ft 2 kts 196°
2026-04-16 23:22 46.23447 6.10668 1388 ft 6 kts 200°
2026-04-16 23:22 46.23405 6.10640 1401 ft 7 kts 209°
2026-04-16 23:23 46.23355 6.10577 1392 ft 10 kts 226°
2026-04-16 23:23 46.23310 6.10520 1395 ft 8 kts 204°
2026-04-16 23:23 46.23275 6.10536 1398 ft 6 kts 143°
2026-04-16 23:23 46.23238 6.10585 1393 ft 9 kts 136°
2026-04-16 23:24 46.23192 6.10646 1393 ft 8 kts 144°
2026-04-16 23:24 46.23148 6.10632 1393 ft 6 kts 221°
2026-04-16 23:24 46.23121 6.10592 1400 ft 5 kts 226°
2026-04-16 23:24 46.23099 6.10560 1395 ft 4 kts 225°
2026-04-16 23:25 46.23081 6.10534 1401 ft 3 kts 223°
2026-04-16 23:25 46.23064 6.10533 1393 ft 2 kts 169°
2026-04-16 23:25 46.23054 6.10542 1402 ft 1 kts 145°
2026-04-16 23:25 46.23042 6.10556 1394 ft 3 kts 137°
2026-04-16 23:26 46.23031 6.10571 1396 ft 1 kts 136°